����,�O�C���x,�����t���O,�O�C���x,�����t���O,�󒲎����x,�����t���O,�󒲎����x,�����t���O,��󒲎����x,�����t���O,����,�����t���O
2002/12/1 0:00,9.4,0,99,0,20.2,0,57.1,0,14.1,0,13.6,0
2002/12/1 0:15,9.4,0,99,0,19.6,0,46.6,0,14.2,0,13.6,0
2002/12/1 0:30,9.1,0,99,0,19.1,0,45.1,0,14.3,0,13.6,0
2002/12/1 0:45,9.1,0,99,0,18.7,0,45.4,0,14.4,0,13.6,0
2002/12/1 1:00,8.8,0,99,0,18.3,0,45.9,0,14.4,0,13.6,0
2002/12/1 1:15,8.9,0,99,0,18,0,46.4,0,14.4,0,13.6,0
2002/12/1 1:30,8.8,0,99,0,17.8,0,46.9,0,14.4,0,13.6,0
2002/12/1 1:45,8.8,0,99,0,17.6,0,47.4,0,14.4,0,13.6,0
2002/12/1 2:00,8.7,0,99,0,17.4,0,47.8,0,14.4,0,13.6,0
2002/12/1 2:15,8.6,0,99,0,17.2,0,48.1,0,14.4,0,13.6,0
2002/12/1 2:30,8.5,0,99,0,17.1,0,48.4,0,14.4,0,13.7,0
2002/12/1 2:45,8.6,0,99,0,16.9,0,48.7,0,14.4,0,13.7,0
2002/12/1 3:00,8.5,0,99,0,16.8,0,48.8,0,14.3,0,13.7,0
2002/12/1 3:15,8.5,0,99,0,16.7,0,49,0,14.3,0,13.7,0
2002/12/1 3:30,8.5,0,99,0,16.6,0,49.1,0,14.3,0,13.7,0
2002/12/1 3:45,8.1,0,99,0,16.5,0,49.2,0,14.2,0,13.7,0
2002/12/1 4:00,7.9,0,99,0,16.4,0,49.4,0,14.2,0,13.7,0
2002/12/1 4:15,7.6,0,99,0,16.3,0,49.5,0,14.2,0,13.7,0
2002/12/1 4:30,7.7,0,99,0,16.2,0,49.7,0,14.2,0,13.7,0
2002/12/1 4:45,7.7,0,99,0,16.1,0,49.7,0,14.1,0,13.7,0
2002/12/1 5:00,7.7,0,99,0,16,0,49.8,0,14.1,0,13.7,0
2002/12/1 5:15,7.7,0,99,0,16,0,49.9,0,14.1,0,13.7,0
2002/12/1 5:30,7.7,0,99,0,15.9,0,49.9,0,14.1,0,13.7,0
2002/12/1 5:45,7.6,0,99,0,15.8,0,49.9,0,14,0,13.8,0
2002/12/1 6:00,7.7,0,99,0,15.7,0,50.1,0,14,0,13.7,0
2002/12/1 6:15,7.5,0,99,0,15.6,0,50.1,0,14,0,13.8,0
2002/12/1 6:30,7.2,0,99,0,15.6,0,50.1,0,13.9,0,13.8,0
2002/12/1 6:45,7.3,0,99,0,15.5,0,50.2,0,13.9,0,13.8,0
2002/12/1 7:00,7.3,0,99,0,15.5,0,50.2,0,13.9,0,13.8,0
2002/12/1 7:15,7,0,99,0,15.4,0,50.3,0,13.9,0,13.8,0
2002/12/1 7:30,7,0,99,0,15.3,0,50.4,0,13.8,0,13.8,0
2002/12/1 7:45,7.2,0,99,0,15.2,0,50.4,0,13.8,0,13.8,0
2002/12/1 8:00,7.2,0,99,0,15.2,0,50.5,0,13.8,0,13.8,0
2002/12/1 8:15,7.8,0,99,0,15.1,0,50.5,0,13.7,0,13.7,0
2002/12/1 8:30,8.4,0,99,0,15.1,0,50.6,0,13.7,0,13.7,0
2002/12/1 8:45,9,0,99,0,15.1,0,50.6,0,13.7,0,13.7,0
2002/12/1 9:00,9.4,0,99,0,15.1,0,50.7,0,13.7,0,13.7,0
2002/12/1 9:15,10.4,0,99,0,15.1,0,50.7,0,13.7,0,13.7,0
2002/12/1 9:30,11.3,0,99,0,15.1,0,50.8,0,13.7,0,13.7,0
2002/12/1 9:45,12.3,0,96,0,15.1,0,50.9,0,13.7,0,13.7,0
2002/12/1 10:00,12.4,0,89,0,15.1,0,50.9,0,13.8,0,13.7,0
2002/12/1 10:15,12.5,0,86,0,15.2,0,50.8,0,13.8,0,13.8,0
2002/12/1 10:30,12.6,0,84,0,15.2,0,51,0,13.9,0,13.5,0
2002/12/1 10:45,13,0,83,0,15.4,0,52.6,0,13.9,0,13.5,0
2002/12/1 11:00,13.3,0,81,0,15.5,0,52.5,0,13.9,0,13.5,0
2002/12/1 11:15,13.8,0,78,0,15.6,0,52.4,0,13.9,0,13.5,0
2002/12/1 11:30,13.8,0,75,0,15.7,0,52.6,0,13.9,0,13.5,0
2002/12/1 11:45,14.7,0,71,0,15.9,0,53.3,0,14,0,13.4,0
2002/12/1 12:00,15,0,69,0,16.4,0,55.1,0,14,0,13.4,0
2002/12/1 12:15,15.4,0,67,0,17.1,0,55.9,0,14.1,0,13.4,0
2002/12/1 12:30,15.2,0,66,0,17.5,0,55.8,0,14.3,0,13.4,0
2002/12/1 12:45,14.8,0,65,0,18,0,56.8,0,14.4,0,13.4,0
2002/12/1 13:00,15.1,0,64,0,18.4,0,56.8,0,14.4,0,13.4,0
2002/12/1 13:15,15.4,0,62,0,18.7,0,57.8,0,14.5,0,13.4,0
2002/12/1 13:30,15.4,0,61,0,19,0,58.5,0,14.6,0,13.4,0
2002/12/1 13:45,15.6,0,60,0,19.4,0,58.2,0,14.7,0,13.4,0
2002/12/1 14:00,15.2,0,60,0,19.5,0,53.3,0,14.9,0,13.6,0
2002/12/1 14:15,15.6,0,59,0,19.7,0,54.1,0,15.1,0,13.6,0
2002/12/1 14:30,15.9,0,57,0,19.8,0,52.6,0,15.3,0,13.6,0
2002/12/1 14:45,15.9,0,58,0,20,0,52.1,0,15.5,0,13.6,0
2002/12/1 15:00,15.5,0,58,0,20,0,52.1,0,15.6,0,13.6,0
2002/12/1 15:15,14.9,0,59,0,19.9,0,51.2,0,15.7,0,13.6,0
2002/12/1 15:30,14.8,0,58,0,19.8,0,50.8,0,15.8,0,13.6,0
2002/12/1 15:45,14.5,0,60,0,19.6,0,50.5,0,15.8,0,13.6,0
2002/12/1 16:00,14.5,0,59,0,19.5,0,50.2,0,15.9,0,13.6,0
2002/12/1 16:15,14.3,0,60,0,19.4,0,49.7,0,15.8,0,13.6,0
2002/12/1 16:30,14,0,60,0,19.2,0,50.1,0,15.9,0,13.6,0
2002/12/1 16:45,13.8,0,59,0,18.9,0,49.6,0,16,0,13.6,0
2002/12/1 17:00,13.5,0,60,0,18.7,0,49.9,0,16,0,13.6,0
2002/12/1 17:15,13.2,0,61,0,18.5,0,50.2,0,16,0,13.6,0
2002/12/1 17:30,13.1,0,61,0,18.3,0,50.5,0,16,0,13.7,0
2002/12/1 17:45,13,0,60,0,18.1,0,50.7,0,16,0,13.7,0
2002/12/1 18:00,13,0,59,0,18,0,50.9,0,16,0,13.7,0
2002/12/1 18:15,12.7,0,59,0,17.9,0,50.9,0,16,0,13.7,0
2002/12/1 18:30,12.5,0,61,0,17.8,0,51.1,0,16,0,13.7,0
2002/12/1 18:45,12.4,0,61,0,17.7,0,51.2,0,16,0,13.7,0
2002/12/1 19:00,12.4,0,61,0,17.6,0,51.2,0,15.9,0,13.7,0
2002/12/1 19:15,12.3,0,62,0,17.5,0,51.1,0,15.9,0,13.7,0
2002/12/1 19:30,11.9,0,67,0,17.5,0,50.9,0,15.9,0,13.7,0
2002/12/1 19:45,11.4,0,71,0,17.4,0,50.6,0,15.9,0,13.7,0
2002/12/1 20:00,11.2,0,79,0,17.6,0,50.6,0,15.9,0,13.8,0
2002/12/1 20:15,10.7,0,81,0,17.9,0,51,0,15.9,0,13.8,0
2002/12/1 20:30,10.3,0,84,0,18.2,0,52.4,0,15.8,0,13.8,0
2002/12/1 20:45,10.3,0,83,0,18.5,0,52.9,0,15.8,0,13.8,0
2002/12/1 21:00,9.8,0,84,0,18.8,0,52.8,0,15.7,0,13.8,0
2002/12/1 21:15,9.6,0,83,0,19,0,53.8,0,15.6,0,13.8,0
2002/12/1 21:30,9.4,0,84,0,19.4,0,55.5,0,15.6,0,13.8,0
2002/12/1 21:45,9.2,0,85,0,19.7,0,55.9,0,15.5,0,13.8,0
2002/12/1 22:00,8.8,0,86,0,19.9,0,56.3,0,15.5,0,13.8,0
2002/12/1 22:15,8.8,0,85,0,20.2,0,56.6,0,15.5,0,13.8,0
2002/12/1 22:30,8.8,0,85,0,20.2,0,50.7,0,15.5,0,13.9,0
2002/12/1 22:45,8.6,0,85,0,20.8,0,53,0,15.5,0,13.9,0
2002/12/1 23:00,8.5,0,85,0,21.1,0,53,0,15.4,0,13.9,0
2002/12/1 23:15,8.4,0,86,0,21.4,0,52.8,0,15.4,0,13.9,0
2002/12/1 23:30,8.4,0,86,0,21.3,0,49.7,0,15.4,0,13.7,0
2002/12/1 23:45,8.2,0,86,0,21.3,0,51,0,15.4,0,13.5,0
2002/12/2 0:00,8.2,0,87,0,21.4,0,52.3,0,15.3,0,13.5,0
2002/12/2 0:15,8.3,0,86,0,21.6,0,52.8,0,15.2,0,13.5,0
2002/12/2 0:30,7.9,0,88,0,21.7,0,53.2,0,15.2,0,13.5,0
2002/12/2 0:45,8,0,88,0,21.7,0,52.3,0,15.2,0,13.5,0
2002/12/2 0:59,8.1,0,86,0,21.4,0,43.2,0,15.3,0,13.5,0
2002/12/2 1:14,7.9,0,86,0,21.1,0,41.8,0,15.4,0,13.5,0
2002/12/2 1:29,7.6,0,88,0,20.9,0,44,0,15.5,0,13.5,0
2002/12/2 1:44,7.4,0,89,0,20.7,0,44.5,0,15.6,0,13.6,0
2002/12/2 1:59,7.2,0,89,0,20.9,0,45.9,0,15.5,0,13.6,0
2002/12/2 2:14,7.1,0,90,0,21.1,0,46.8,0,15.5,0,13.6,0
2002/12/2 2:29,7,0,90,0,21.2,0,48.1,0,15.4,0,13.6,0
2002/12/2 2:44,6.9,0,91,0,21.4,0,48.7,0,15.3,0,13.7,0
2002/12/2 2:59,7,0,91,0,21.4,0,46.9,0,15.3,0,13.7,0
2002/12/2 3:14,6.7,0,91,0,20.7,0,43.8,0,15.4,0,13.7,0
2002/12/2 3:29,6.8,0,91,0,20.2,0,44.3,0,15.5,0,13.8,0
2002/12/2 3:44,6.7,0,91,0,19.9,0,45.1,0,15.5,0,13.8,0
2002/12/2 3:59,6.9,0,90,0,19.5,0,44.6,0,15.5,0,13.8,0
2002/12/2 4:14,6.7,0,91,0,19.2,0,45.1,0,15.5,0,13.8,0
2002/12/2 4:29,6.9,0,91,0,18.9,0,45.2,0,15.4,0,13.8,0
2002/12/2 4:44,6.9,0,89,0,18.7,0,45.5,0,15.4,0,13.8,0
2002/12/2 4:59,6.8,0,89,0,18.4,0,45.8,0,15.3,0,13.8,0
2002/12/2 5:14,6.5,0,91,0,18.2,0,46,0,15.2,0,13.8,0
2002/12/2 5:29,6.7,0,91,0,18.1,0,46.2,0,15.2,0,13.8,0
2002/12/2 5:44,6.5,0,92,0,17.9,0,46.3,0,15.1,0,13.8,0
2002/12/2 5:59,6.4,0,92,0,17.8,0,46.5,0,15.1,0,13.8,0
2002/12/2 6:14,6.3,0,92,0,17.6,0,46.6,0,15,0,13.8,0
2002/12/2 6:29,6.4,0,92,0,17.5,0,46.9,0,15,0,13.8,0
2002/12/2 6:44,6.3,0,92,0,17.4,0,47,0,14.9,0,13.8,0
2002/12/2 6:59,6.4,0,92,0,17.3,0,47.1,0,14.9,0,13.8,0
2002/12/2 7:14,6.3,0,92,0,17.2,0,47.2,0,14.8,0,13.8,0
2002/12/2 7:29,6.4,0,93,0,17.1,0,47.2,0,14.8,0,13.8,0
2002/12/2 7:44,6.6,0,93,0,17,0,47.4,0,14.7,0,13.8,0
2002/12/2 7:59,7,0,93,0,16.9,0,47.5,0,14.7,0,13.5,0
2002/12/2 8:14,7.4,0,93,0,16.8,0,47.7,0,14.7,0,13.5,0
2002/12/2 8:29,7.8,0,90,0,16.7,0,47.9,0,14.6,0,13.5,0
2002/12/2 8:44,8.1,0,88,0,16.7,0,48,0,14.6,0,13.5,0
2002/12/2 8:59,8.6,0,86,0,16.6,0,48,0,14.6,0,13.5,0
2002/12/2 9:14,8.8,0,86,0,16.5,0,48.1,0,14.5,0,13.5,0
2002/12/2 9:29,9.4,0,85,0,16.5,0,48.3,0,14.5,0,13.5,0
2002/12/2 9:44,10,0,83,0,16.5,0,48.3,0,14.5,0,13.5,0
2002/12/2 9:59,10.6,0,81,0,16.4,0,48.4,0,14.5,0,13.5,0
2002/12/2 10:14,11.3,0,76,0,16.4,0,48.5,0,14.5,0,13.5,0
2002/12/2 10:29,12.2,0,68,0,16.4,0,49,0,14.6,0,13.4,0
2002/12/2 10:44,12.6,0,62,0,16.4,0,48.7,0,14.6,0,13.4,0
2002/12/2 10:59,13.1,0,57,0,16.4,0,48.7,0,14.7,0,13.4,0
2002/12/2 11:14,13.8,0,56,0,16.5,0,48.6,0,14.7,0,13.4,0
2002/12/2 11:29,14.2,0,53,0,16.6,0,48.9,0,14.8,0,13.4,0
2002/12/2 11:44,14.4,0,52,0,16.8,0,48.5,0,15,0,13.4,0
2002/12/2 11:59,14.8,0,50,0,16.9,0,48.6,0,15.1,0,13.4,0
2002/12/2 12:14,14.8,0,48,0,17.1,0,48.8,0,15.3,0,13.4,0
2002/12/2 12:29,14.8,0,49,0,17.1,0,49,0,15.5,0,13.4,0
2002/12/2 12:44,14.9,0,48,0,17.2,0,49.4,0,15.7,0,13.4,0
2002/12/2 12:59,15.2,0,47,0,17.3,0,49.9,0,15.8,0,13.4,0
2002/12/2 13:14,15.4,0,48,0,17.4,0,50.1,0,16,0,13.4,0
2002/12/2 13:29,15.8,0,47,0,17.5,0,50.3,0,16.2,0,13.4,0
2002/12/2 13:44,15.7,0,47,0,17.6,0,50.4,0,16.4,0,13.4,0
2002/12/2 13:59,15.9,0,46,0,17.7,0,50.5,0,16.5,0,13.4,0
2002/12/2 14:14,16,0,46,0,17.7,0,50.5,0,16.7,0,13.4,0
2002/12/2 14:29,16.2,0,46,0,17.8,0,50.7,0,16.8,0,13.4,0
2002/12/2 14:44,16.2,0,47,0,17.9,0,50.7,0,17,0,13.4,0
2002/12/2 14:59,16,0,48,0,17.9,0,50.9,0,17.1,0,13.4,0
2002/12/2 15:14,15.8,0,47,0,17.9,0,51,0,17.2,0,13.4,0
2002/12/2 15:29,15.7,0,46,0,17.9,0,51.2,0,17.3,0,13.4,0
2002/12/2 15:44,15.3,0,47,0,17.9,0,51.2,0,17.3,0,13.5,0
2002/12/2 15:59,15,0,46,0,17.9,0,51.3,0,17.3,0,13.5,0
2002/12/2 16:14,14.8,0,48,0,17.9,0,51.4,0,17.3,0,13.5,0
2002/12/2 16:29,14.4,0,50,0,17.9,0,51.2,0,17.3,0,13.5,0
2002/12/2 16:44,14.2,0,52,0,17.8,0,51.3,0,17.3,0,13.5,0
2002/12/2 16:59,14,0,53,0,17.8,0,51.1,0,17.3,0,13.5,0
2002/12/2 17:14,13.9,0,54,0,17.8,0,51,0,17.3,0,13.5,0
2002/12/2 17:29,13.5,0,55,0,17.7,0,50.9,0,17.2,0,13.5,0
2002/12/2 17:44,13.4,0,56,0,17.6,0,50.7,0,17.2,0,13.5,0
2002/12/2 17:59,13.2,0,58,0,17.6,0,50.7,0,17.2,0,13.6,0
2002/12/2 18:14,12.9,0,60,0,17.6,0,50.7,0,17.1,0,13.6,0
2002/12/2 18:29,12.6,0,63,0,17.5,0,50.6,0,17.1,0,13.6,0
2002/12/2 18:44,11.7,0,70,0,17.5,0,50.5,0,17,0,13.6,0
2002/12/2 18:59,11.1,0,73,0,17.4,0,50.4,0,17,0,13.6,0
2002/12/2 19:14,10.9,0,74,0,17.4,0,50.2,0,17,0,13.6,0
2002/12/2 19:29,10.7,0,75,0,17.4,0,50.1,0,16.9,0,13.6,0
2002/12/2 19:44,10.4,0,76,0,17.3,0,49.9,0,16.8,0,13.7,0
2002/12/2 19:59,10.3,0,77,0,17.2,0,49.8,0,16.8,0,13.7,0
2002/12/2 20:14,10.3,0,78,0,17.2,0,49.8,0,16.7,0,13.7,0
2002/12/2 20:29,10.1,0,77,0,17.1,0,49.6,0,16.7,0,13.7,0
2002/12/2 20:44,10.1,0,78,0,17.1,0,49.6,0,16.6,0,13.7,0
2002/12/2 20:59,9.9,0,80,0,17,0,49.6,0,16.6,0,13.7,0
2002/12/2 21:14,9.9,0,80,0,17,0,49.5,0,16.5,0,13.7,0
2002/12/2 21:29,9.6,0,82,0,16.9,0,49.5,0,16.5,0,13.7,0
2002/12/2 21:44,9.8,0,81,0,16.9,0,49.4,0,16.4,0,13.7,0
2002/12/2 21:59,9.8,0,80,0,16.8,0,49.4,0,16.3,0,13.7,0
2002/12/2 22:14,9.8,0,79,0,16.8,0,49.4,0,16.3,0,13.8,0
2002/12/2 22:29,10.2,0,76,0,16.7,0,49.4,0,16.2,0,13.8,0
2002/12/2 22:44,10.2,0,76,0,16.7,0,49.4,0,16.2,0,13.8,0
2002/12/2 22:59,10.4,0,75,0,16.6,0,49.3,0,16.1,0,13.8,0
2002/12/2 23:14,10.4,0,75,0,16.6,0,49.3,0,16.1,0,13.8,0
2002/12/2 23:29,10.5,0,72,0,16.5,0,49.4,0,16,0,13.8,0
2002/12/2 23:44,10.4,0,73,0,16.7,0,49,0,15.9,0,13.8,0
2002/12/2 23:59,10.4,0,74,0,16.9,0,49,0,15.9,0,13.7,0
2002/12/3 0:14,10.4,0,73,0,17.2,0,49.1,0,15.9,0,13.7,0
2002/12/3 0:29,10.4,0,73,0,17.4,0,49.7,0,16,0,13.5,0
2002/12/3 0:44,10.4,0,72,0,17.9,0,51.7,0,15.9,0,13.6,0
2002/12/3 0:59,10,0,73,0,18.2,0,52.4,0,15.8,0,13.6,0
2002/12/3 1:14,9.7,0,75,0,18.6,0,52.9,0,15.8,0,13.6,0
2002/12/3 1:29,9,0,80,0,18.9,0,53.3,0,15.7,0,13.6,0
2002/12/3 1:44,8.8,0,80,0,19.2,0,52.4,0,15.7,0,13.6,0
2002/12/3 1:59,8.6,0,81,0,19.4,0,52.7,0,15.6,0,13.6,0
2002/12/3 2:14,8.5,0,82,0,19.6,0,50.6,0,15.7,0,13.7,0
2002/12/3 2:29,8.6,0,81,0,19,0,45.7,0,15.7,0,13.7,0
2002/12/3 2:44,8.1,0,82,0,18.6,0,45.7,0,15.7,0,13.7,0
2002/12/3 2:59,7.7,0,84,0,18.3,0,45.9,0,15.7,0,13.7,0
2002/12/3 3:14,7.7,0,84,0,18.1,0,46.2,0,15.7,0,13.7,0
2002/12/3 3:29,7.5,0,85,0,17.8,0,46.3,0,15.6,0,13.7,0
2002/12/3 3:44,7.5,0,84,0,17.6,0,46.7,0,15.6,0,13.8,0
2002/12/3 3:59,7.4,0,83,0,17.5,0,46.9,0,15.5,0,13.8,0
2002/12/3 4:14,7.5,0,83,0,17.3,0,46.9,0,15.4,0,13.8,0
2002/12/3 4:29,7.5,0,83,0,17.2,0,47.1,0,15.4,0,13.8,0
2002/12/3 4:44,7.4,0,82,0,17,0,47.3,0,15.3,0,13.8,0
2002/12/3 4:59,7.3,0,82,0,16.9,0,47.3,0,15.3,0,13.8,0
2002/12/3 5:14,7.4,0,82,0,16.8,0,47.4,0,15.2,0,13.8,0
2002/12/3 5:29,7.5,0,81,0,16.7,0,47.5,0,15.1,0,13.8,0
2002/12/3 5:44,7.1,0,82,0,16.6,0,47.4,0,15.1,0,13.8,0
2002/12/3 5:59,7.2,0,84,0,16.5,0,47.5,0,15,0,13.8,0
2002/12/3 6:14,7.4,0,84,0,16.5,0,47.5,0,15,0,13.8,0
2002/12/3 6:29,7.1,0,81,0,16.4,0,47.5,0,14.9,0,13.8,0
2002/12/3 6:44,7.2,0,81,0,16.3,0,47.6,0,14.9,0,13.9,0
2002/12/3 6:59,7,0,83,0,16.2,0,47.6,0,14.8,0,13.9,0
2002/12/3 7:14,6.8,0,83,0,16.1,0,47.7,0,14.8,0,13.9,0
2002/12/3 7:29,7,0,83,0,16.1,0,47.6,0,14.8,0,13.9,0
2002/12/3 7:44,7,0,84,0,16,0,47.7,0,14.7,0,13.9,0
2002/12/3 7:59,7.7,0,82,0,15.9,0,47.7,0,14.7,0,13.9,0
2002/12/3 8:14,8.2,0,78,0,15.9,0,47.7,0,14.6,0,13.7,0
2002/12/3 8:29,8.5,0,74,0,15.8,0,48,0,14.6,0,13.7,0
2002/12/3 8:44,9,0,74,0,15.8,0,48.1,0,14.6,0,13.7,0
2002/12/3 8:59,9.5,0,74,0,15.7,0,48.1,0,14.6,0,13.7,0
2002/12/3 9:14,10.6,0,71,0,15.7,0,48.3,0,14.5,0,13.7,0
2002/12/3 9:29,11.3,0,67,0,15.7,0,48.3,0,14.5,0,13.7,0
2002/12/3 9:44,11.7,0,66,0,15.7,0,48.4,0,14.5,0,13.7,0
2002/12/3 9:59,12.2,0,64,0,15.6,0,48.5,0,14.5,0,13.7,0
2002/12/3 10:14,12.4,0,60,0,15.6,0,48.5,0,14.5,0,13.7,0
2002/12/3 10:29,13.1,0,54,0,15.6,0,48.5,0,14.5,0,13.7,0
2002/12/3 10:44,13.8,0,47,0,15.6,0,48.7,0,14.4,0,13.7,0
2002/12/3 10:59,14.5,0,41,0,15.6,0,48.9,0,14.4,0,13.7,0
2002/12/3 11:14,14.5,0,41,0,15.6,0,49.1,0,14.5,0,13.7,0
2002/12/3 11:29,14.7,0,38,0,15.6,0,49.3,0,14.5,0,13.7,0
2002/12/3 11:44,14.8,0,39,0,15.6,0,49.5,0,14.5,0,13.7,0
2002/12/3 11:59,14.6,0,43,0,15.6,0,49.7,0,14.5,0,13.7,0
2002/12/3 12:14,14.6,0,44,0,15.6,0,49.9,0,14.5,0,13.7,0
2002/12/3 12:29,14.4,0,47,0,15.6,0,50.1,0,14.6,0,13.7,0
2002/12/3 12:44,14.5,0,51,0,15.6,0,50.2,0,14.6,0,13.7,0
2002/12/3 12:59,14.5,0,53,0,15.6,0,50.4,0,14.6,0,13.6,0
2002/12/3 13:14,14.4,0,53,0,15.5,0,50.5,0,14.6,0,13.6,0
2002/12/3 13:29,14.3,0,53,0,15.6,0,50.6,0,14.6,0,13.7,0
2002/12/3 13:44,14.2,0,54,0,15.5,0,50.8,0,14.7,0,13.7,0
2002/12/3 13:59,14.1,0,54,0,15.5,0,50.9,0,14.7,0,13.7,0
2002/12/3 14:14,13.8,0,59,0,15.5,0,51,0,14.7,0,13.7,0
2002/12/3 14:29,13.8,0,56,0,15.5,0,51,0,14.7,0,13.7,0
2002/12/3 14:44,13.9,0,58,0,15.5,0,51,0,14.7,0,13.7,0
2002/12/3 14:59,13.2,0,73,0,15.5,0,51,0,14.8,0,13.7,0
2002/12/3 15:14,12.8,0,79,0,15.5,0,51.1,0,14.8,0,13.7,0
2002/12/3 15:29,12.6,0,81,0,15.5,0,51.1,0,14.8,0,13.7,0
2002/12/3 15:44,12.6,0,82,0,15.5,0,51.1,0,14.8,0,13.7,0
2002/12/3 15:59,12.3,0,85,0,15.5,0,51,0,14.8,0,13.7,0
2002/12/3 16:14,11.9,0,92,0,15.4,0,51,0,14.8,0,13.7,0
2002/12/3 16:29,11.7,0,95,0,15.4,0,51.1,0,14.8,0,13.7,0
2002/12/3 16:44,11.6,0,96,0,15.4,0,51.1,0,14.8,0,13.7,0
2002/12/3 16:59,11.5,0,98,0,15.4,0,51.2,0,14.8,0,13.7,0
2002/12/3 17:14,11.4,0,98,0,15.4,0,51.3,0,14.8,0,13.7,0
2002/12/3 17:29,11.4,0,97,0,15.4,0,51.3,0,14.8,0,13.7,0
2002/12/3 17:44,11.5,0,95,0,15.3,0,51.4,0,14.7,0,13.7,0
2002/12/3 17:59,11.4,0,95,0,15.3,0,51.5,0,14.7,0,13.7,0
2002/12/3 18:14,11.1,0,98,0,15.3,0,51.6,0,14.7,0,13.7,0
2002/12/3 18:29,11.2,0,99,0,15.3,0,51.7,0,14.7,0,13.7,0
2002/12/3 18:44,11.2,0,99,0,15.3,0,51.8,0,14.7,0,13.7,0
2002/12/3 18:59,11.1,0,99,0,15.3,0,51.9,0,14.7,0,13.7,0
2002/12/3 19:14,11.2,0,99,0,15.3,0,52,0,14.6,0,13.7,0
2002/12/3 19:29,11.1,0,99,0,15.2,0,52.1,0,14.6,0,13.7,0
2002/12/3 19:44,11,0,99,0,15.2,0,52.2,0,14.6,0,13.7,0
2002/12/3 19:59,11.1,0,99,0,15.2,0,52.4,0,14.6,0,13.7,0
2002/12/3 20:14,11,0,99,0,15.2,0,52.6,0,14.6,0,13.7,0
2002/12/3 20:29,11.3,0,99,0,15.2,0,52.6,0,14.6,0,13.7,0
2002/12/3 20:44,11.4,0,99,0,15.2,0,52.7,0,14.5,0,13.7,0
2002/12/3 20:59,11.6,0,99,0,15.1,0,52.7,0,14.5,0,13.8,0
2002/12/3 21:14,11.6,0,99,0,15.1,0,52.9,0,14.5,0,13.8,0
2002/12/3 21:29,11.7,0,99,0,15.1,0,53,0,14.5,0,13.8,0
2002/12/3 21:44,11.8,0,99,0,15.1,0,53,0,14.5,0,13.8,0
2002/12/3 21:59,11.7,0,99,0,15.1,0,53,0,14.5,0,13.8,0
2002/12/3 22:14,11.8,0,99,0,15.3,0,53.2,0,14.5,0,13.8,0
2002/12/3 22:29,11.8,0,99,0,15.9,0,53.4,0,14.4,0,13.6,0
2002/12/3 22:44,11.8,0,99,0,16.4,0,54.1,0,14.4,0,13.7,0
2002/12/3 22:59,11.8,0,99,0,16.6,0,54.4,0,14.4,0,13.5,0
2002/12/3 23:14,11.9,0,99,0,16.9,0,54.7,0,14.4,0,13.6,0
2002/12/3 23:29,12.3,0,99,0,17.2,0,55.8,0,14.4,0,13.6,0
2002/12/3 23:44,12.6,0,98,0,17.5,0,57.5,0,14.4,0,13.6,0
2002/12/3 23:59,12.6,0,97,0,17.9,0,58,0,14.4,0,13.6,0
2002/12/4 0:14,12.5,0,98,0,18.1,0,58.1,0,14.4,0,13.5,0
2002/12/4 0:29,12.8,0,95,0,18.3,0,57.5,0,14.4,0,13.6,0
2002/12/4 0:44,12.9,0,93,0,18.5,0,57.5,0,14.4,0,13.6,0
2002/12/4 0:59,13,0,93,0,18.8,0,58.3,0,14.4,0,13.6,0
2002/12/4 1:14,13.3,0,91,0,19,0,58.6,0,14.4,0,13.6,0
2002/12/4 1:29,13.3,0,90,0,19.1,0,58.2,0,14.4,0,13.6,0
2002/12/4 1:44,13.6,0,88,0,19.2,0,57.4,0,14.4,0,13.6,0
2002/12/4 1:59,13.5,0,89,0,18.7,0,48.5,0,14.6,0,13.6,0
2002/12/4 2:14,14,0,87,0,18.4,0,48.8,0,14.6,0,13.7,0
2002/12/4 2:29,14.3,0,84,0,18.1,0,49.1,0,14.7,0,13.7,0
2002/12/4 2:44,14.6,0,83,0,17.8,0,49.7,0,14.7,0,13.7,0
2002/12/4 2:59,14.6,0,84,0,17.6,0,50.2,0,14.8,0,13.8,0
2002/12/4 3:14,14.6,0,85,0,17.5,0,50.7,0,14.8,0,13.8,0
2002/12/4 3:29,14.6,0,86,0,17.3,0,51.2,0,14.8,0,13.8,0
2002/12/4 3:44,14.7,0,86,0,17.2,0,51.7,0,14.9,0,13.8,0
2002/12/4 3:59,14.3,0,87,0,17.1,0,52.1,0,14.9,0,13.8,0
2002/12/4 4:14,14.5,0,88,0,17,0,52.2,0,14.9,0,13.9,0
2002/12/4 4:29,14.2,0,89,0,17,0,52.5,0,14.9,0,13.9,0
2002/12/4 4:44,14.8,0,92,0,16.9,0,52.7,0,15,0,13.9,0
2002/12/4 4:59,15.6,0,88,0,16.8,0,52.8,0,15,0,13.9,0
2002/12/4 5:14,14.8,0,88,0,16.8,0,53,0,15,0,13.9,0
2002/12/4 5:29,15.2,0,90,0,16.7,0,53.1,0,15,0,13.9,0
2002/12/4 5:44,14.3,0,92,0,16.7,0,53.3,0,15,0,13.9,0
2002/12/4 5:59,15.1,0,93,0,16.7,0,53.3,0,15,0,14,0
2002/12/4 6:14,14.3,0,91,0,16.6,0,53.4,0,15,0,14,0
2002/12/4 6:29,14.1,0,95,0,16.6,0,53.5,0,15.1,0,14,0
2002/12/4 6:44,14.6,0,96,0,16.5,0,53.6,0,15.1,0,14,0
2002/12/4 6:59,14.3,0,95,0,16.5,0,53.7,0,15.1,0,14,0
2002/12/4 7:14,14.3,0,96,0,16.5,0,53.7,0,15.1,0,14,0
2002/12/4 7:29,14.5,0,96,0,16.5,0,53.8,0,15.1,0,14,0
2002/12/4 7:44,14.6,0,95,0,16.5,0,53.8,0,15.1,0,14.1,0
2002/12/4 7:59,14.8,0,95,0,16.4,0,54.1,0,15.1,0,14,0
2002/12/4 8:14,14.9,0,94,0,16.6,0,54.5,0,15.1,0,14,0
2002/12/4 8:29,15.1,0,95,0,16.9,0,55.7,0,15.2,0,14,0
2002/12/4 8:44,15.2,0,94,0,16.9,0,54.8,0,15.2,0,14,0
2002/12/4 8:59,15.2,0,94,0,17,0,55.2,0,15.2,0,14.1,0
2002/12/4 9:14,15.4,0,95,0,17.4,0,56.6,0,15.2,0,14.1,0
2002/12/4 9:29,15.8,0,93,0,17.7,0,57.5,0,15.3,0,14,0
2002/12/4 9:44,16.2,0,90,0,18.1,0,58.8,0,15.3,0,14,0
2002/12/4 9:59,16.2,0,91,0,18.6,0,59.1,0,15.3,0,14,0
2002/12/4 10:14,16.3,0,89,0,18.9,0,59.6,0,15.3,0,14,0
2002/12/4 10:29,16.4,0,90,0,19.3,0,59.9,0,15.3,0,14,0
2002/12/4 10:44,16.2,0,90,0,19.5,0,59.4,0,15.4,0,13.9,0
2002/12/4 10:59,17,0,84,0,19.8,0,59.8,0,15.4,0,14,0
2002/12/4 11:14,17.4,0,78,0,20,0,59.3,0,15.5,0,14,0
2002/12/4 11:29,17.3,0,82,0,20.3,0,58.5,0,15.5,0,13.9,0
2002/12/4 11:44,16.8,0,87,0,20.5,0,59.2,0,15.5,0,13.9,0
2002/12/4 11:59,16.6,0,90,0,20.8,0,59.2,0,15.6,0,14,0
2002/12/4 12:14,16.2,0,96,0,20.7,0,53.2,0,15.7,0,13.9,0
2002/12/4 12:29,16,0,99,0,21,0,55.7,0,15.8,0,13.9,0
2002/12/4 12:44,15.9,0,99,0,21.3,0,55.1,0,15.8,0,13.9,0
2002/12/4 12:59,15.8,0,99,0,21.3,0,51.9,0,15.9,0,14,0
2002/12/4 13:14,15.8,0,99,0,21.1,0,48.5,0,16.1,0,13.9,0
2002/12/4 13:29,15.7,0,99,0,21,0,48.3,0,16.3,0,14,0
2002/12/4 13:44,15.8,0,99,0,21,0,48,0,16.5,0,14,0
2002/12/4 13:59,15.8,0,99,0,20.9,0,48,0,16.6,0,14,0
2002/12/4 14:14,15.8,0,99,0,20.9,0,48,0,16.7,0,14,0
2002/12/4 14:29,15.8,0,99,0,20.9,0,48,0,16.8,0,14,0
2002/12/4 14:44,15.8,0,99,0,20.9,0,48.2,0,16.9,0,14.1,0
2002/12/4 14:59,15.6,0,99,0,21.3,0,50.1,0,16.8,0,14.1,0
2002/12/4 15:14,15.6,0,99,0,21.5,0,50.5,0,16.8,0,14.1,0
2002/12/4 15:29,15.6,0,99,0,21.8,0,51.5,0,16.7,0,14.1,0
2002/12/4 15:44,15.6,0,99,0,22,0,52.1,0,16.7,0,14.1,0
2002/12/4 15:59,15.6,0,99,0,22.3,0,52.3,0,16.7,0,14.2,0
2002/12/4 16:14,15.6,0,99,0,22.5,0,52.7,0,16.7,0,14.2,0
2002/12/4 16:29,15.6,0,99,0,22.7,0,52.8,0,16.7,0,14.2,0
2002/12/4 16:44,15.6,0,99,0,22.8,0,53.3,0,16.6,0,14.2,0
2002/12/4 16:59,15.5,0,99,0,22.8,0,53.7,0,16.7,0,14.2,0
2002/12/4 17:14,15.5,0,99,0,22.6,0,53.6,0,16.6,0,14.2,0
2002/12/4 17:29,15.4,0,99,0,22.2,0,53.6,0,16.6,0,14.2,0
2002/12/4 17:44,15.3,0,99,0,22,0,54.1,0,16.6,0,14.2,0
2002/12/4 17:59,15.3,0,99,0,21.7,0,50.8,0,16.6,0,14.3,0
2002/12/4 18:14,15.2,0,99,0,21.6,0,51.3,0,16.6,0,14.3,0
2002/12/4 18:29,15.2,0,99,0,21.4,0,49.5,0,16.7,0,14.2,0
2002/12/4 18:44,15.2,0,99,0,21.2,0,48,0,16.9,0,14.2,0
2002/12/4 18:59,15.2,0,99,0,21.1,0,48.6,0,16.9,0,14.2,0
2002/12/4 19:14,15.1,0,99,0,21,0,48.7,0,16.9,0,14.2,0
2002/12/4 19:29,15.1,0,99,0,20.9,0,48.8,0,16.9,0,14.3,0
2002/12/4 19:44,15.1,0,99,0,20.9,0,49,0,16.9,0,14.2,0
2002/12/4 19:59,14.9,0,99,0,20.8,0,49.7,0,16.9,0,14.3,0
2002/12/4 20:14,14.8,0,99,0,20.8,0,50.1,0,16.9,0,14.3,0
2002/12/4 20:29,15,0,99,0,20.3,0,49.7,0,16.9,0,14.3,0
2002/12/4 20:44,14.9,0,99,0,20,0,50.3,0,16.9,0,14.3,0
2002/12/4 20:59,14.8,0,99,0,19.9,0,51.5,0,16.9,0,14.3,0
2002/12/4 21:14,14.8,0,99,0,20,0,53.5,0,16.9,0,14,0
2002/12/4 21:29,14.8,0,99,0,20.2,0,55,0,17,0,14,0
2002/12/4 21:44,14.7,0,99,0,20.2,0,53.6,0,17,0,14,0
2002/12/4 21:59,14.7,0,99,0,20.3,0,55.5,0,16.9,0,14.1,0
2002/12/4 22:14,14.8,0,99,0,20.4,0,57.1,0,16.9,0,14.1,0
2002/12/4 22:29,14.8,0,99,0,20.4,0,57.5,0,16.9,0,14.1,0
2002/12/4 22:44,14.7,0,99,0,20.6,0,57.4,0,16.9,0,14.1,0
2002/12/4 22:59,14.6,0,99,0,20.9,0,56.4,0,16.9,0,14.1,0
2002/12/4 23:14,14.5,0,99,0,21,0,55.7,0,16.8,0,14.2,0
2002/12/4 23:29,14.4,0,99,0,21,0,56.3,0,16.8,0,14.2,0
2002/12/4 23:44,14.1,0,99,0,21.1,0,56.6,0,16.8,0,14.2,0
2002/12/4 23:59,13.8,0,99,0,21.4,0,56.6,0,16.8,0,14.2,0
2002/12/5 0:14,13.6,0,99,0,21.5,0,55.5,0,16.8,0,14,0
2002/12/5 0:29,13.5,0,99,0,21.5,0,55,0,16.8,0,14.1,0
2002/12/5 0:44,13.3,0,99,0,21.4,0,55,0,16.9,0,14.1,0
2002/12/5 0:59,13.1,0,99,0,21.2,0,52.5,0,16.9,0,14.1,0
2002/12/5 1:14,13.2,0,99,0,21.1,0,52.7,0,16.9,0,14.1,0
2002/12/5 1:29,13.1,0,99,0,21.1,0,53,0,16.9,0,14.1,0
2002/12/5 1:44,13,0,99,0,21,0,53,0,16.9,0,14.1,0
2002/12/5 1:59,12.8,0,99,0,20.9,0,52.3,0,16.9,0,14.1,0
2002/12/5 2:14,12.7,0,99,0,20.8,0,52.1,0,16.9,0,14.1,0
2002/12/5 2:29,12.6,0,99,0,20.4,0,51.4,0,17,0,14.2,0
2002/12/5 2:44,12.5,0,99,0,20.1,0,51.8,0,17,0,14.2,0
2002/12/5 2:59,12.3,0,99,0,19.9,0,52.1,0,17,0,14.2,0
2002/12/5 3:14,12.4,0,99,0,19.7,0,52.5,0,17.1,0,14.2,0
2002/12/5 3:29,12.6,0,99,0,19.6,0,52.9,0,17.1,0,14.3,0
2002/12/5 3:44,12.5,0,99,0,19.5,0,53.3,0,17.1,0,14.3,0
2002/12/5 3:59,12.6,0,99,0,19.4,0,53.4,0,17.1,0,14.3,0
2002/12/5 4:14,12.6,0,99,0,19.3,0,53.8,0,17,0,14.3,0
2002/12/5 4:29,12.8,0,99,0,19.2,0,53.9,0,17,0,14.4,0
2002/12/5 4:44,12.8,0,99,0,19.1,0,54.1,0,17,0,14.4,0
2002/12/5 4:59,12.9,0,99,0,19,0,54.2,0,17,0,14.4,0
2002/12/5 5:14,13,0,99,0,19,0,54.4,0,17,0,14.4,0
2002/12/5 5:29,12.9,0,99,0,18.9,0,54.5,0,17,0,14.4,0
2002/12/5 5:44,12.9,0,99,0,18.8,0,54.7,0,17,0,14.5,0
2002/12/5 5:59,12.9,0,99,0,18.8,0,54.8,0,17,0,14.5,0
2002/12/5 6:14,12.9,0,99,0,18.7,0,54.9,0,17,0,14.5,0
2002/12/5 6:29,13,0,99,0,18.7,0,55.1,0,16.9,0,14.5,0
2002/12/5 6:44,13.1,0,99,0,18.6,0,55.2,0,16.9,0,14.5,0
2002/12/5 6:59,13.1,0,99,0,18.6,0,55.3,0,16.9,0,14.6,0
2002/12/5 7:14,13.1,0,99,0,18.5,0,55.4,0,16.9,0,14.6,0
2002/12/5 7:29,13.2,0,99,0,18.5,0,55.5,0,16.9,0,14.6,0
2002/12/5 7:44,13.3,0,99,0,18.5,0,55.6,0,16.9,0,14.6,0
2002/12/5 7:59,13.3,0,99,0,18.4,0,55.7,0,16.9,0,14.7,0
2002/12/5 8:14,13.3,0,99,0,18.4,0,55.8,0,16.8,0,14.7,0
2002/12/5 8:29,13.3,0,99,0,18.4,0,55.9,0,16.8,0,14.7,0
2002/12/5 8:44,13.4,0,99,0,18.3,0,56,0,16.8,0,14.7,0
2002/12/5 8:59,13.5,0,99,0,18.3,0,56.1,0,16.8,0,14.7,0
2002/12/5 9:14,13.6,0,99,0,18.3,0,55.9,0,16.8,0,14.6,0
2002/12/5 9:29,13.6,0,99,0,18.4,0,57.6,0,16.8,0,14.6,0
2002/12/5 9:44,13.7,0,99,0,18.4,0,58,0,16.8,0,14.6,0
2002/12/5 9:59,13.8,0,99,0,18.5,0,57.9,0,16.7,0,14.4,0
2002/12/5 10:14,13.8,0,99,0,18.8,0,58.8,0,16.7,0,14.4,0
2002/12/5 10:29,13.9,0,99,0,19.2,0,59.8,0,16.7,0,14.4,0
2002/12/5 10:44,14,0,99,0,19.6,0,59.8,0,16.7,0,14.3,0
2002/12/5 10:59,13.9,0,99,0,20,0,60.1,0,16.7,0,14.4,0
2002/12/5 11:14,13.9,0,99,0,20.3,0,59.8,0,16.7,0,14.4,0
2002/12/5 11:29,14.2,0,99,0,20.7,0,59.7,0,16.7,0,14.3,0